Time,TemperatureF,DewpointF,PressureIn,WindDirection,WindDirectionDegrees,WindSpeedMPH,WindSpeedGustMPH,Humidity,HourlyPrecipIn,Conditions,Clouds,dailyrainin,SoftwareType,DateUTC
2013-08-15 00:01:00,69.5,63.1,29.87,North,-999,-999.0,0.0,80,0.00,,---,0.00,VWS V14.01,2013-08-15 04:01:00,
2013-08-15 00:02:00,69.5,63.1,29.87,North,-999,-999.0,0.0,80,0.00,,---,0.00,VWS V14.01,2013-08-15 04:02:00,
2013-08-15 00:03:00,69.5,63.1,29.87,North,-999,-999.0,0.0,80,0.00,,---,0.00,VWS V14.01,2013-08-15 04:03:00,
2013-08-15 00:06:00,69.5,63.1,29.87,North,-999,-999.0,0.0,80,0.00,,---,0.00,VWS V14.01,2013-08-15 04:06:00,
2013-08-15 00:12:00,69.5,63.1,29.88,North,-999,-999.0,0.0,80,0.00,,---,0.00,VWS V14.01,2013-08-15 04:12:00,
2013-08-15 00:18:00,69.5,63.1,29.87,North,-999,-999.0,0.0,80,0.00,,---,0.00,VWS V14.01,2013-08-15 04:18:00,
2013-08-15 00:23:00,69.5,63.1,29.88,North,-999,-999.0,0.0,80,0.00,,---,0.00,VWS V14.01,2013-08-15 04:23:00,
2013-08-15 00:28:00,69.7,63.3,29.88,North,-999,-999.0,0.0,80,0.00,,---,0.00,VWS V14.01,2013-08-15 04:28:00,
2013-08-15 00:33:00,69.7,63.3,29.88,North,-999,-999.0,0.0,80,0.00,,---,0.00,VWS V14.01,2013-08-15 04:33:00,
2013-08-15 00:38:00,69.7,63.3,29.88,North,-999,-999.0,0.0,80,0.00,,---,0.00,VWS V14.01,2013-08-15 04:38:00,
2013-08-15 00:43:00,69.7,63.3,29.88,North,-999,-999.0,0.0,80,0.00,,---,0.00,VWS V14.01,2013-08-15 04:43:00,
2013-08-15 00:48:00,69.5,63.1,29.88,North,-999,-999.0,0.0,80,0.00,,---,0.00,VWS V14.01,2013-08-15 04:48:00,
2013-08-15 00:53:00,69.5,63.1,29.88,North,-999,-999.0,0.0,80,0.00,,---,0.00,VWS V14.01,2013-08-15 04:53:00,
2013-08-15 00:58:00,69.5,63.1,29.88,North,-999,-999.0,0.0,80,0.00,,---,0.00,VWS V14.01,2013-08-15 04:58:00,
2013-08-15 01:04:00,69.3,62.9,29.88,North,-999,-999.0,0.0,80,0.00,,---,0.00,VWS V14.01,2013-08-15 05:04:00,
2013-08-15 01:09:00,69.1,62.7,29.87,North,-999,-999.0,0.0,80,0.00,,---,0.00,VWS V14.01,2013-08-15 05:09:00,
2013-08-15 01:14:00,69.1,62.7,29.87,North,-999,-999.0,0.0,80,0.00,,---,0.00,VWS V14.01,2013-08-15 05:14:00,
2013-08-15 01:19:00,68.9,62.5,29.87,North,-999,-999.0,0.0,80,0.00,,---,0.00,VWS V14.01,2013-08-15 05:19:00,
2013-08-15 01:24:00,68.8,62.4,29.87,North,-999,-999.0,0.0,80,0.00,,---,0.00,VWS V14.01,2013-08-15 05:24:00,
2013-08-15 01:29:00,68.6,62.2,29.87,North,-999,-999.0,0.0,80,0.00,,---,0.00,VWS V14.01,2013-08-15 05:29:00,
2013-08-15 01:34:00,68.4,62.3,29.87,North,-999,-999.0,0.0,81,0.00,,---,0.00,VWS V14.01,2013-08-15 05:34:00,
2013-08-15 01:39:00,68.4,62.3,29.87,North,-999,-999.0,0.0,81,0.00,,---,0.00,VWS V14.01,2013-08-15 05:39:00,
2013-08-15 01:44:00,68.0,62.0,29.87,North,-999,-999.0,0.0,81,0.00,,---,0.00,VWS V14.01,2013-08-15 05:44:00,
2013-08-15 01:49:00,68.0,62.0,29.87,North,-999,-999.0,0.0,81,0.00,,---,0.00,VWS V14.01,2013-08-15 05:49:00,
2013-08-15 01:54:00,68.0,62.0,29.87,North,-999,-999.0,0.0,81,0.00,,---,0.00,VWS V14.01,2013-08-15 05:54:00,
2013-08-15 01:59:00,67.9,61.9,29.87,North,-999,-999.0,0.0,81,0.00,,---,0.00,VWS V14.01,2013-08-15 05:59:00,
2013-08-15 02:04:00,67.9,62.2,29.87,North,-999,-999.0,0.0,82,0.00,,---,0.00,VWS V14.01,2013-08-15 06:04:00,
2013-08-15 02:10:00,67.7,62.0,29.87,North,-999,-999.0,0.0,82,0.00,,---,0.00,VWS V14.01,2013-08-15 06:10:00,
2013-08-15 02:16:00,67.3,61.6,29.87,North,-999,-999.0,0.0,82,0.00,,---,0.00,VWS V14.01,2013-08-15 06:16:00,
2013-08-15 02:21:00,67.3,61.6,29.87,North,-999,-999.0,0.0,82,0.00,,---,0.00,VWS V14.01,2013-08-15 06:21:00,
2013-08-15 02:26:00,67.1,61.8,29.87,North,-999,-999.0,0.0,83,0.00,,---,0.00,VWS V14.01,2013-08-15 06:26:00,
2013-08-15 02:31:00,67.1,61.8,29.87,North,-999,-999.0,0.0,83,0.00,,---,0.00,VWS V14.01,2013-08-15 06:31:00,
2013-08-15 02:36:00,67.0,61.7,29.87,North,-999,-999.0,0.0,83,0.00,,---,0.00,VWS V14.01,2013-08-15 06:36:00,
2013-08-15 02:41:00,67.0,62.0,29.87,North,-999,-999.0,0.0,84,0.00,,---,0.00,VWS V14.01,2013-08-15 06:41:00,
2013-08-15 02:46:00,66.8,61.8,29.87,North,-999,-999.0,0.0,84,0.00,,---,0.00,VWS V14.01,2013-08-15 06:46:00,
2013-08-15 02:51:00,66.8,61.8,29.87,North,-999,-999.0,0.0,84,0.00,,---,0.00,VWS V14.01,2013-08-15 06:51:00,
2013-08-15 02:56:00,66.8,61.8,29.87,North,-999,-999.0,0.0,84,0.00,,---,0.00,VWS V14.01,2013-08-15 06:56:00,
2013-08-15 03:02:00,66.8,61.8,29.87,North,-999,-999.0,0.0,84,0.00,,---,0.00,VWS V14.01,2013-08-15 07:02:00,
2013-08-15 03:07:00,66.8,61.8,29.87,North,-999,-999.0,0.0,84,0.00,,---,0.00,VWS V14.01,2013-08-15 07:07:00,
2013-08-15 03:12:00,66.6,61.6,29.87,North,-999,-999.0,0.0,84,0.00,,---,0.00,VWS V14.01,2013-08-15 07:12:00,
2013-08-15 03:17:00,66.6,61.6,29.87,North,-999,-999.0,0.0,84,0.00,,---,0.00,VWS V14.01,2013-08-15 07:17:00,
2013-08-15 03:22:00,66.2,61.2,29.87,North,-999,-999.0,0.0,84,0.00,,---,0.00,VWS V14.01,2013-08-15 07:22:00,
2013-08-15 03:27:00,66.2,61.2,29.87,North,-999,-999.0,0.0,84,0.00,,---,0.00,VWS V14.01,2013-08-15 07:27:00,
2013-08-15 03:32:00,66.2,61.2,29.87,North,-999,-999.0,0.0,84,0.00,,---,0.00,VWS V14.01,2013-08-15 07:32:00,
2013-08-15 03:37:00,66.2,61.2,29.87,North,-999,-999.0,0.0,84,0.00,,---,0.00,VWS V14.01,2013-08-15 07:37:00,
2013-08-15 03:42:00,66.2,61.2,29.87,North,-999,-999.0,0.0,84,0.00,,---,0.00,VWS V14.01,2013-08-15 07:42:00,
2013-08-15 03:47:00,66.2,61.2,29.87,North,-999,-999.0,0.0,84,0.00,,---,0.00,VWS V14.01,2013-08-15 07:47:00,
2013-08-15 03:52:00,66.2,61.2,29.87,North,-999,-999.0,0.0,84,0.00,,---,0.00,VWS V14.01,2013-08-15 07:52:00,
2013-08-15 03:57:00,66.2,61.2,29.87,North,-999,-999.0,0.0,84,0.00,,---,0.00,VWS V14.01,2013-08-15 07:57:00,
2013-08-15 04:03:00,66.1,61.1,29.87,North,-999,-999.0,0.0,84,0.00,,---,0.00,VWS V14.01,2013-08-15 08:03:00,
2013-08-15 04:09:00,66.1,61.1,29.87,North,-999,-999.0,0.0,84,0.00,,---,0.00,VWS V14.01,2013-08-15 08:09:00,
2013-08-15 04:14:00,66.1,61.1,29.86,North,-999,-999.0,0.0,84,0.00,,---,0.00,VWS V14.01,2013-08-15 08:14:00,
2013-08-15 04:19:00,66.1,61.1,29.87,North,-999,-999.0,0.0,84,0.00,,---,0.00,VWS V14.01,2013-08-15 08:19:00,
2013-08-15 04:24:00,66.1,61.1,29.87,North,-999,-999.0,0.0,84,0.00,,---,0.00,VWS V14.01,2013-08-15 08:24:00,
2013-08-15 04:29:00,66.2,61.2,29.87,North,-999,-999.0,0.0,84,0.00,,---,0.00,VWS V14.01,2013-08-15 08:29:00,
2013-08-15 04:34:00,66.1,61.1,29.87,North,-999,-999.0,0.0,84,0.00,,---,0.00,VWS V14.01,2013-08-15 08:34:00,
2013-08-15 04:39:00,66.1,61.1,29.87,North,-999,-999.0,0.0,84,0.00,,---,0.00,VWS V14.01,2013-08-15 08:39:00,
2013-08-15 04:44:00,66.1,61.5,29.87,North,-999,-999.0,0.0,85,0.00,,---,0.00,VWS V14.01,2013-08-15 08:44:00,
2013-08-15 04:49:00,66.1,61.1,29.87,North,-999,-999.0,0.0,84,0.00,,---,0.00,VWS V14.01,2013-08-15 08:49:00,
2013-08-15 04:54:00,66.1,61.5,29.87,North,-999,-999.0,0.0,85,0.00,,---,0.00,VWS V14.01,2013-08-15 08:54:00,
2013-08-15 04:59:00,66.1,61.1,29.87,North,-999,-999.0,0.0,84,0.00,,---,0.00,VWS V14.01,2013-08-15 08:59:00,
2013-08-15 05:05:00,66.1,61.1,29.87,North,-999,-999.0,0.0,84,0.00,,---,0.00,VWS V14.01,2013-08-15 09:05:00,
2013-08-15 05:10:00,66.2,61.2,29.87,North,-999,-999.0,0.0,84,0.00,,---,0.00,VWS V14.01,2013-08-15 09:10:00,
2013-08-15 05:15:00,66.2,61.2,29.87,North,-999,-999.0,0.0,84,0.00,,---,0.00,VWS V14.01,2013-08-15 09:15:00,
2013-08-15 05:20:00,66.1,61.1,29.87,North,-999,-999.0,0.0,84,0.00,,---,0.00,VWS V14.01,2013-08-15 09:20:00,
2013-08-15 05:25:00,65.9,60.9,29.87,North,-999,-999.0,0.0,84,0.00,,---,0.00,VWS V14.01,2013-08-15 09:25:00,
2013-08-15 05:30:00,65.9,60.9,29.87,North,-999,-999.0,0.0,84,0.00,,---,0.00,VWS V14.01,2013-08-15 09:30:00,
2013-08-15 05:35:00,65.7,60.7,29.88,North,-999,-999.0,0.0,84,0.00,,---,0.00,VWS V14.01,2013-08-15 09:35:00,
2013-08-15 05:40:00,65.5,60.9,29.88,North,-999,-999.0,0.0,85,0.00,,---,0.00,VWS V14.01,2013-08-15 09:40:00,
2013-08-15 05:45:00,65.3,60.3,29.88,North,-999,-999.0,0.0,84,0.00,,---,0.00,VWS V14.01,2013-08-15 09:45:00,
2013-08-15 05:50:00,65.2,60.2,29.88,North,-999,-999.0,0.0,84,0.00,,---,0.00,VWS V14.01,2013-08-15 09:50:00,
2013-08-15 05:55:00,65.2,60.2,29.88,North,-999,-999.0,0.0,84,0.00,,---,0.00,VWS V14.01,2013-08-15 09:55:00,
2013-08-15 06:01:00,64.8,60.2,29.88,North,-999,-999.0,0.0,85,0.00,,---,0.00,VWS V14.01,2013-08-15 10:01:00,
2013-08-15 06:06:00,64.6,59.7,29.89,North,-999,-999.0,0.0,84,0.00,,---,0.00,VWS V14.01,2013-08-15 10:06:00,
2013-08-15 06:11:00,64.4,59.5,29.89,North,-999,-999.0,0.0,84,0.00,,---,0.00,VWS V14.01,2013-08-15 10:11:00,
2013-08-15 06:16:00,64.3,59.7,29.89,North,-999,-999.0,0.0,85,0.00,,---,0.00,VWS V14.01,2013-08-15 10:16:00,
2013-08-15 06:21:00,64.1,59.5,29.90,North,-999,-999.0,0.0,85,0.00,,---,0.00,VWS V14.01,2013-08-15 10:21:00,
2013-08-15 06:26:00,63.9,59.3,29.90,North,-999,-999.0,0.0,85,0.00,,---,0.00,VWS V14.01,2013-08-15 10:26:00,
2013-08-15 06:31:00,63.7,59.1,29.90,North,-999,-999.0,0.0,85,0.00,,---,0.00,VWS V14.01,2013-08-15 10:31:00,
2013-08-15 06:36:00,63.7,59.4,29.90,North,-999,-999.0,0.0,86,0.00,,---,0.00,VWS V14.01,2013-08-15 10:36:00,
2013-08-15 06:41:00,63.5,59.2,29.90,North,-999,-999.0,0.0,86,0.00,,---,0.00,VWS V14.01,2013-08-15 10:41:00,
2013-08-15 06:46:00,63.5,59.2,29.90,North,-999,-999.0,0.0,86,0.00,,---,0.00,VWS V14.01,2013-08-15 10:46:00,
2013-08-15 06:51:00,63.5,59.6,29.90,North,-999,-999.0,0.0,87,0.00,,---,0.00,VWS V14.01,2013-08-15 10:51:00,
2013-08-15 06:56:00,63.5,59.6,29.91,North,-999,-999.0,0.0,87,0.00,,---,0.00,VWS V14.01,2013-08-15 10:56:00,
2013-08-15 07:02:00,63.5,59.6,29.91,North,-999,-999.0,0.0,87,0.00,,---,0.00,VWS V14.01,2013-08-15 11:02:00,
2013-08-15 07:07:00,63.5,59.6,29.91,North,-999,-999.0,0.0,87,0.00,,---,0.00,VWS V14.01,2013-08-15 11:07:00,
2013-08-15 07:12:00,63.5,59.6,29.91,North,-999,-999.0,0.0,87,0.00,,---,0.00,VWS V14.01,2013-08-15 11:12:00,
2013-08-15 07:17:00,63.7,59.8,29.92,North,-999,-999.0,0.0,87,0.00,,---,0.00,VWS V14.01,2013-08-15 11:17:00,
2013-08-15 07:22:00,63.9,60.0,29.92,North,-999,-999.0,0.0,87,0.00,,---,0.00,VWS V14.01,2013-08-15 11:22:00,
2013-08-15 07:27:00,64.1,60.2,29.92,North,-999,-999.0,0.0,87,0.00,,---,0.00,VWS V14.01,2013-08-15 11:27:00,
2013-08-15 07:32:00,64.3,60.3,29.92,North,-999,-999.0,0.0,87,0.00,,---,0.00,VWS V14.01,2013-08-15 11:32:00,
2013-08-15 07:37:00,64.4,60.5,29.92,North,-999,-999.0,0.0,87,0.00,,---,0.00,VWS V14.01,2013-08-15 11:37:00,
2013-08-15 07:42:00,64.8,60.5,29.92,North,-999,-999.0,0.0,86,0.00,,---,0.00,VWS V14.01,2013-08-15 11:42:00,
2013-08-15 07:47:00,65.2,60.9,29.92,North,-999,-999.0,0.0,86,0.00,,---,0.00,VWS V14.01,2013-08-15 11:47:00,
2013-08-15 07:53:00,65.3,60.7,29.92,North,-999,-999.0,0.0,85,0.00,,---,0.00,VWS V14.01,2013-08-15 11:53:00,
2013-08-15 07:58:00,65.7,61.1,29.92,North,-999,-999.0,0.0,85,0.00,,---,0.00,VWS V14.01,2013-08-15 11:58:00,
2013-08-15 08:03:00,65.9,60.9,29.92,North,-999,-999.0,0.0,84,0.00,,---,0.00,VWS V14.01,2013-08-15 12:03:00,
2013-08-15 08:09:00,66.4,61.1,29.93,North,-999,-999.0,0.0,83,0.00,,---,0.00,VWS V14.01,2013-08-15 12:09:00,
2013-08-15 08:14:00,66.8,61.1,29.93,North,-999,-999.0,0.0,82,0.00,,---,0.00,VWS V14.01,2013-08-15 12:14:00,
2013-08-15 08:19:00,67.1,61.1,29.93,North,-999,-999.0,0.0,81,0.00,,---,0.00,VWS V14.01,2013-08-15 12:19:00,
2013-08-15 08:24:00,67.7,61.3,29.93,North,-999,-999.0,0.0,80,0.00,,---,0.00,VWS V14.01,2013-08-15 12:24:00,
2013-08-15 08:29:00,68.0,60.9,29.94,North,-999,-999.0,0.0,78,0.00,,---,0.00,VWS V14.01,2013-08-15 12:29:00,
2013-08-15 08:34:00,68.0,61.2,29.94,North,-999,-999.0,0.0,79,0.00,,---,0.00,VWS V14.01,2013-08-15 12:34:00,
2013-08-15 08:39:00,68.0,60.5,29.94,North,-999,-999.0,0.0,77,0.00,,---,0.00,VWS V14.01,2013-08-15 12:39:00,
2013-08-15 08:44:00,68.2,60.7,29.94,North,-999,-999.0,0.0,77,0.00,,---,0.00,VWS V14.01,2013-08-15 12:44:00,
2013-08-15 08:49:00,68.2,60.3,29.94,North,-999,-999.0,0.0,76,0.00,,---,0.00,VWS V14.01,2013-08-15 12:49:00,
2013-08-15 08:54:00,68.2,60.3,29.94,North,-999,-999.0,0.0,76,0.00,,---,0.00,VWS V14.01,2013-08-15 12:54:00,
2013-08-15 08:59:00,68.4,60.2,29.94,North,-999,-999.0,0.0,75,0.00,,---,0.00,VWS V14.01,2013-08-15 12:59:00,
2013-08-15 09:05:00,68.6,60.4,29.95,North,-999,-999.0,0.0,75,0.00,,---,0.00,VWS V14.01,2013-08-15 13:05:00,
2013-08-15 09:10:00,68.6,60.0,29.94,North,-999,-999.0,0.0,74,0.00,,---,0.00,VWS V14.01,2013-08-15 13:10:00,
2013-08-15 09:15:00,68.8,59.8,29.95,North,-999,-999.0,0.0,73,0.00,,---,0.00,VWS V14.01,2013-08-15 13:15:00,
2013-08-15 09:20:00,68.8,59.8,29.95,North,-999,-999.0,0.0,73,0.00,,---,0.00,VWS V14.01,2013-08-15 13:20:00,
2013-08-15 09:25:00,68.9,59.1,29.94,North,-999,-999.0,0.0,71,0.00,,---,0.00,VWS V14.01,2013-08-15 13:25:00,
2013-08-15 09:30:00,68.9,59.1,29.94,North,-999,-999.0,0.0,71,0.00,,---,0.00,VWS V14.01,2013-08-15 13:30:00,
2013-08-15 09:35:00,69.1,59.3,29.94,North,-999,-999.0,0.0,71,0.00,,---,0.00,VWS V14.01,2013-08-15 13:35:00,
2013-08-15 09:40:00,69.5,58.9,29.94,North,-999,-999.0,0.0,69,0.00,,---,0.00,VWS V14.01,2013-08-15 13:40:00,
2013-08-15 09:45:00,69.7,59.9,29.94,North,-999,-999.0,0.0,71,0.00,,---,0.00,VWS V14.01,2013-08-15 13:45:00,
2013-08-15 09:50:00,69.8,59.2,29.94,North,-999,-999.0,0.0,69,0.00,,---,0.00,VWS V14.01,2013-08-15 13:50:00,
2013-08-15 09:55:00,70.2,60.0,29.95,North,-999,-999.0,0.0,70,0.00,,---,0.00,VWS V14.01,2013-08-15 13:55:00,
2013-08-15 10:01:00,70.6,60.3,29.95,North,-999,-999.0,0.0,70,0.00,,---,0.00,VWS V14.01,2013-08-15 14:01:00,
2013-08-15 10:06:00,71.1,60.0,29.94,North,-999,-999.0,0.0,68,0.00,,---,0.00,VWS V14.01,2013-08-15 14:06:00,
2013-08-15 10:11:00,71.1,59.6,29.94,North,-999,-999.0,0.0,67,0.00,,---,0.00,VWS V14.01,2013-08-15 14:11:00,
2013-08-15 10:16:00,71.3,59.4,29.94,North,-999,-999.0,0.0,66,0.00,,---,0.00,VWS V14.01,2013-08-15 14:16:00,
2013-08-15 10:21:00,71.6,60.5,29.95,North,-999,-999.0,0.0,68,0.00,,---,0.00,VWS V14.01,2013-08-15 14:21:00,
2013-08-15 10:26:00,72.2,60.2,29.95,North,-999,-999.0,0.0,66,0.00,,---,0.00,VWS V14.01,2013-08-15 14:26:00,
2013-08-15 10:31:00,72.7,60.3,29.95,North,-999,-999.0,0.0,65,0.00,,---,0.00,VWS V14.01,2013-08-15 14:31:00,
2013-08-15 10:36:00,72.9,59.1,29.95,North,-999,-999.0,0.0,62,0.00,,---,0.00,VWS V14.01,2013-08-15 14:36:00,
2013-08-15 10:41:00,72.9,59.1,29.95,North,-999,-999.0,0.0,62,0.00,,---,0.00,VWS V14.01,2013-08-15 14:41:00,
2013-08-15 10:46:00,73.1,59.3,29.95,North,-999,-999.0,0.0,62,0.00,,---,0.00,VWS V14.01,2013-08-15 14:46:00,
2013-08-15 10:51:00,73.1,59.3,29.95,North,-999,-999.0,0.0,62,0.00,,---,0.00,VWS V14.01,2013-08-15 14:51:00,
2013-08-15 10:56:00,73.6,59.3,29.95,North,-999,-999.0,0.0,61,0.00,,---,0.00,VWS V14.01,2013-08-15 14:56:00,
2013-08-15 11:02:00,74.5,60.2,29.95,North,-999,-999.0,0.0,61,0.00,,---,0.00,VWS V14.01,2013-08-15 15:02:00,
2013-08-15 11:07:00,76.7,60.8,29.95,North,-999,-999.0,0.0,58,0.00,,---,0.00,VWS V14.01,2013-08-15 15:07:00,
2013-08-15 11:13:00,78.8,60.8,29.95,North,-999,-999.0,0.0,54,0.00,,---,0.00,VWS V14.01,2013-08-15 15:13:00,
2013-08-15 11:18:00,79.6,60.4,29.94,North,-999,-999.0,0.0,52,0.00,,---,0.00,VWS V14.01,2013-08-15 15:18:00,
2013-08-15 11:23:00,80.6,59.7,29.94,North,-999,-999.0,0.0,49,0.00,,---,0.00,VWS V14.01,2013-08-15 15:23:00,
2013-08-15 11:29:00,78.3,59.8,29.94,North,-999,-999.0,0.0,53,0.00,,---,0.00,VWS V14.01,2013-08-15 15:29:00,
2013-08-15 11:34:00,77.0,59.6,29.94,North,-999,-999.0,0.0,55,0.00,,---,0.00,VWS V14.01,2013-08-15 15:34:00,
2013-08-15 11:39:00,76.1,59.3,29.95,North,-999,-999.0,0.0,56,0.00,,---,0.00,VWS V14.01,2013-08-15 15:39:00,
2013-08-15 11:44:00,77.4,61.0,29.95,North,-999,-999.0,0.0,57,0.00,,---,0.00,VWS V14.01,2013-08-15 15:44:00,
2013-08-15 11:49:00,77.4,61.0,29.95,North,-999,-999.0,0.0,57,0.00,,---,0.00,VWS V14.01,2013-08-15 15:49:00,
2013-08-15 11:54:00,77.2,60.3,29.95,North,-999,-999.0,0.0,56,0.00,,---,0.00,VWS V14.01,2013-08-15 15:54:00,
2013-08-15 11:59:00,76.1,59.3,29.94,North,-999,-999.0,0.0,56,0.00,,---,0.00,VWS V14.01,2013-08-15 15:59:00,
2013-08-15 12:05:00,76.0,59.7,29.95,North,-999,-999.0,0.0,57,0.00,,---,0.00,VWS V14.01,2013-08-15 16:05:00,
2013-08-15 12:10:00,76.9,60.5,29.95,North,-999,-999.0,0.0,57,0.00,,---,0.00,VWS V14.01,2013-08-15 16:10:00,
2013-08-15 12:15:00,77.9,61.5,29.95,North,-999,-999.0,0.0,57,0.00,,---,0.00,VWS V14.01,2013-08-15 16:15:00,
2013-08-15 12:22:00,76.5,59.7,29.94,North,-999,-999.0,0.0,56,0.00,,---,0.00,VWS V14.01,2013-08-15 16:22:00,
2013-08-15 12:27:00,76.0,60.2,29.94,North,-999,-999.0,0.0,58,0.00,,---,0.00,VWS V14.01,2013-08-15 16:27:00,
2013-08-15 12:32:00,76.7,61.3,29.94,North,-999,-999.0,0.0,59,0.00,,---,0.00,VWS V14.01,2013-08-15 16:32:00,
2013-08-15 12:37:00,76.7,60.8,29.94,North,-999,-999.0,0.0,58,0.00,,---,0.00,VWS V14.01,2013-08-15 16:37:00,
2013-08-15 12:42:00,76.1,60.3,29.94,North,-999,-999.0,0.0,58,0.00,,---,0.00,VWS V14.01,2013-08-15 16:42:00,
2013-08-15 12:47:00,75.2,59.4,29.94,North,-999,-999.0,0.0,58,0.00,,---,0.00,VWS V14.01,2013-08-15 16:47:00,
2013-08-15 12:52:00,74.9,60.1,29.93,North,-999,-999.0,0.0,60,0.00,,---,0.00,VWS V14.01,2013-08-15 16:52:00,
2013-08-15 12:57:00,74.5,59.2,29.94,North,-999,-999.0,0.0,59,0.00,,---,0.00,VWS V14.01,2013-08-15 16:57:00,
2013-08-15 13:02:00,74.2,59.9,29.94,North,-999,-999.0,0.0,61,0.00,,---,0.00,VWS V14.01,2013-08-15 17:02:00,
2013-08-15 13:08:00,74.3,60.0,29.94,North,-999,-999.0,0.0,61,0.00,,---,0.00,VWS V14.01,2013-08-15 17:08:00,
2013-08-15 13:13:00,74.3,60.0,29.94,North,-999,-999.0,0.0,61,0.00,,---,0.00,VWS V14.01,2013-08-15 17:13:00,
2013-08-15 13:18:00,74.5,60.2,29.94,North,-999,-999.0,0.0,61,0.00,,---,0.00,VWS V14.01,2013-08-15 17:18:00,
2013-08-15 13:23:00,74.5,60.2,29.93,North,-999,-999.0,0.0,61,0.00,,---,0.00,VWS V14.01,2013-08-15 17:23:00,
2013-08-15 13:29:00,74.3,60.0,29.93,North,-999,-999.0,0.0,61,0.00,,---,0.00,VWS V14.01,2013-08-15 17:29:00,
2013-08-15 13:35:00,74.5,60.6,29.93,North,-999,-999.0,0.0,62,0.00,,---,0.00,VWS V14.01,2013-08-15 17:35:00,
2013-08-15 13:40:00,74.5,60.6,29.92,North,-999,-999.0,0.0,62,0.00,,---,0.00,VWS V14.01,2013-08-15 17:40:00,
2013-08-15 13:45:00,74.7,60.8,29.93,North,-999,-999.0,0.0,62,0.00,,---,0.00,VWS V14.01,2013-08-15 17:45:00,
2013-08-15 13:52:00,74.5,60.6,29.92,North,-999,-999.0,0.0,62,0.00,,---,0.00,VWS V14.01,2013-08-15 17:52:00,
2013-08-15 13:57:00,74.3,60.5,29.92,North,-999,-999.0,0.0,62,0.00,,---,0.00,VWS V14.01,2013-08-15 17:57:00,
2013-08-15 14:03:00,74.2,60.8,29.92,North,-999,-999.0,0.0,63,0.00,,---,0.00,VWS V14.01,2013-08-15 18:03:00,
2013-08-15 14:08:00,74.2,60.8,29.92,North,-999,-999.0,0.0,63,0.00,,---,0.00,VWS V14.01,2013-08-15 18:08:00,
2013-08-15 14:13:00,74.2,60.8,29.92,North,-999,-999.0,0.0,63,0.00,,---,0.00,VWS V14.01,2013-08-15 18:13:00,
2013-08-15 14:18:00,73.8,60.4,29.92,North,-999,-999.0,0.0,63,0.00,,---,0.00,VWS V14.01,2013-08-15 18:18:00,
2013-08-15 14:23:00,73.8,60.4,29.92,North,-999,-999.0,0.0,63,0.00,,---,0.00,VWS V14.01,2013-08-15 18:23:00,
2013-08-15 14:28:00,74.0,61.1,29.91,North,-999,-999.0,0.0,64,0.00,,---,0.00,VWS V14.01,2013-08-15 18:28:00,
2013-08-15 14:33:00,74.0,61.1,29.91,North,-999,-999.0,0.0,64,0.00,,---,0.00,VWS V14.01,2013-08-15 18:33:00,
2013-08-15 14:39:00,74.5,61.1,29.92,North,-999,-999.0,0.0,63,0.00,,---,0.00,VWS V14.01,2013-08-15 18:39:00,
2013-08-15 14:44:00,75.1,61.7,29.91,North,-999,-999.0,0.0,63,0.00,,---,0.00,VWS V14.01,2013-08-15 18:44:00,
2013-08-15 14:49:00,75.6,62.1,29.91,North,-999,-999.0,0.0,63,0.00,,---,0.00,VWS V14.01,2013-08-15 18:49:00,
2013-08-15 14:55:00,76.3,61.9,29.91,North,-999,-999.0,0.0,61,0.00,,---,0.00,VWS V14.01,2013-08-15 18:55:00,
2013-08-15 15:01:00,76.7,61.8,29.91,North,-999,-999.0,0.0,60,0.00,,---,0.00,VWS V14.01,2013-08-15 19:01:00,
2013-08-15 15:06:00,78.3,62.8,29.91,North,-999,-999.0,0.0,59,0.00,,---,0.00,VWS V14.01,2013-08-15 19:06:00,
2013-08-15 15:11:00,80.8,62.6,29.90,North,-999,-999.0,0.0,54,0.00,,---,0.00,VWS V14.01,2013-08-15 19:11:00,
2013-08-15 15:16:00,82.1,63.8,29.90,North,-999,-999.0,0.0,54,0.00,,---,0.00,VWS V14.01,2013-08-15 19:16:00,
2013-08-15 15:21:00,82.6,64.3,29.91,North,-999,-999.0,0.0,54,0.00,,---,0.00,VWS V14.01,2013-08-15 19:21:00,
2013-08-15 15:26:00,82.6,61.5,29.90,North,-999,-999.0,0.0,49,0.00,,---,0.00,VWS V14.01,2013-08-15 19:26:00,
2013-08-15 15:31:00,82.3,61.8,29.90,North,-999,-999.0,0.0,50,0.00,,---,0.00,VWS V14.01,2013-08-15 19:31:00,
2013-08-15 15:36:00,81.7,61.8,29.90,North,-999,-999.0,0.0,51,0.00,,---,0.00,VWS V14.01,2013-08-15 19:36:00,
2013-08-15 15:41:00,81.7,61.3,29.90,North,-999,-999.0,0.0,50,0.00,,---,0.00,VWS V14.01,2013-08-15 19:41:00,
2013-08-15 15:46:00,81.7,60.7,29.90,North,-999,-999.0,0.0,49,0.00,,---,0.00,VWS V14.01,2013-08-15 19:46:00,
2013-08-15 15:51:00,81.7,61.3,29.89,North,-999,-999.0,0.0,50,0.00,,---,0.00,VWS V14.01,2013-08-15 19:51:00,
2013-08-15 15:57:00,82.3,61.2,29.89,North,-999,-999.0,0.0,49,0.00,,---,0.00,VWS V14.01,2013-08-15 19:57:00,
2013-08-15 16:03:00,82.4,61.3,29.89,North,-999,-999.0,0.0,49,0.00,,---,0.00,VWS V14.01,2013-08-15 20:03:00,
2013-08-15 16:08:00,82.1,61.1,29.89,North,-999,-999.0,0.0,49,0.00,,---,0.00,VWS V14.01,2013-08-15 20:08:00,
2013-08-15 16:14:00,81.2,60.8,29.89,North,-999,-999.0,0.0,50,0.00,,---,0.00,VWS V14.01,2013-08-15 20:14:00,
2013-08-15 16:20:00,81.0,60.6,29.89,North,-999,-999.0,0.0,50,0.00,,---,0.00,VWS V14.01,2013-08-15 20:20:00,
2013-08-15 16:25:00,80.8,60.4,29.90,North,-999,-999.0,0.0,50,0.00,,---,0.00,VWS V14.01,2013-08-15 20:25:00,
2013-08-15 16:30:00,80.5,60.7,29.90,North,-999,-999.0,0.0,51,0.00,,---,0.00,VWS V14.01,2013-08-15 20:30:00,
2013-08-15 16:35:00,80.8,61.0,29.90,North,-999,-999.0,0.0,51,0.00,,---,0.00,VWS V14.01,2013-08-15 20:35:00,
2013-08-15 16:40:00,80.5,60.7,29.90,North,-999,-999.0,0.0,51,0.00,,---,0.00,VWS V14.01,2013-08-15 20:40:00,
2013-08-15 16:45:00,79.9,60.2,29.89,North,-999,-999.0,0.0,51,0.00,,---,0.00,VWS V14.01,2013-08-15 20:45:00,
2013-08-15 16:50:00,79.6,60.4,29.90,North,-999,-999.0,0.0,52,0.00,,---,0.00,VWS V14.01,2013-08-15 20:50:00,
2013-08-15 16:55:00,79.2,60.6,29.90,North,-999,-999.0,0.0,53,0.00,,---,0.00,VWS V14.01,2013-08-15 20:55:00,
2013-08-15 17:02:00,79.2,60.6,29.90,North,-999,-999.0,0.0,53,0.00,,---,0.00,VWS V14.01,2013-08-15 21:02:00,
2013-08-15 17:07:00,78.7,60.7,29.90,North,-999,-999.0,0.0,54,0.00,,---,0.00,VWS V14.01,2013-08-15 21:07:00,
2013-08-15 17:12:00,78.3,60.3,29.90,North,-999,-999.0,0.0,54,0.00,,---,0.00,VWS V14.01,2013-08-15 21:12:00,
2013-08-15 17:17:00,77.9,60.5,29.90,North,-999,-999.0,0.0,55,0.00,,---,0.00,VWS V14.01,2013-08-15 21:17:00,
2013-08-15 17:22:00,77.8,60.4,29.90,North,-999,-999.0,0.0,55,0.00,,---,0.00,VWS V14.01,2013-08-15 21:22:00,
2013-08-15 17:27:00,77.4,60.5,29.90,North,-999,-999.0,0.0,56,0.00,,---,0.00,VWS V14.01,2013-08-15 21:27:00,
2013-08-15 17:33:00,76.9,60.0,29.90,North,-999,-999.0,0.0,56,0.00,,---,0.00,VWS V14.01,2013-08-15 21:33:00,
2013-08-15 17:38:00,76.7,60.3,29.90,North,-999,-999.0,0.0,57,0.00,,---,0.00,VWS V14.01,2013-08-15 21:38:00,
2013-08-15 17:43:00,76.3,60.5,29.90,North,-999,-999.0,0.0,58,0.00,,---,0.00,VWS V14.01,2013-08-15 21:43:00,
2013-08-15 17:48:00,76.0,60.7,29.90,North,-999,-999.0,0.0,59,0.00,,---,0.00,VWS V14.01,2013-08-15 21:48:00,
2013-08-15 17:53:00,75.8,60.5,29.90,North,-999,-999.0,0.0,59,0.00,,---,0.00,VWS V14.01,2013-08-15 21:53:00,
2013-08-15 17:58:00,75.6,60.8,29.90,North,-999,-999.0,0.0,60,0.00,,---,0.00,VWS V14.01,2013-08-15 21:58:00,
2013-08-15 18:04:00,75.6,60.8,29.90,North,-999,-999.0,0.0,60,0.00,,---,0.00,VWS V14.01,2013-08-15 22:04:00,
2013-08-15 18:10:00,75.8,60.9,29.90,North,-999,-999.0,0.0,60,0.00,,---,0.00,VWS V14.01,2013-08-15 22:10:00,
2013-08-15 18:15:00,76.0,61.1,29.90,North,-999,-999.0,0.0,60,0.00,,---,0.00,VWS V14.01,2013-08-15 22:15:00,
2013-08-15 18:20:00,76.0,61.1,29.90,North,-999,-999.0,0.0,60,0.00,,---,0.00,VWS V14.01,2013-08-15 22:20:00,
2013-08-15 18:25:00,75.8,60.9,29.90,North,-999,-999.0,0.0,60,0.00,,---,0.00,VWS V14.01,2013-08-15 22:25:00,
2013-08-15 18:30:00,75.4,61.0,29.90,North,-999,-999.0,0.0,61,0.00,,---,0.00,VWS V14.01,2013-08-15 22:30:00,
2013-08-15 18:35:00,75.4,61.0,29.90,North,-999,-999.0,0.0,61,0.00,,---,0.00,VWS V14.01,2013-08-15 22:35:00,
2013-08-15 18:40:00,75.2,61.3,29.90,North,-999,-999.0,0.0,62,0.00,,---,0.00,VWS V14.01,2013-08-15 22:40:00,
2013-08-15 18:45:00,75.2,61.3,29.90,North,-999,-999.0,0.0,62,0.00,,---,0.00,VWS V14.01,2013-08-15 22:45:00,
2013-08-15 18:50:00,75.1,61.2,29.90,North,-999,-999.0,0.0,62,0.00,,---,0.00,VWS V14.01,2013-08-15 22:50:00,
2013-08-15 18:55:00,75.1,61.2,29.90,North,-999,-999.0,0.0,62,0.00,,---,0.00,VWS V14.01,2013-08-15 22:55:00,
2013-08-15 19:03:00,75.2,61.8,29.90,North,-999,-999.0,0.0,63,0.00,,---,0.00,VWS V14.01,2013-08-15 23:03:00,
2013-08-15 19:08:00,74.9,61.5,29.90,North,-999,-999.0,0.0,63,0.00,,---,0.00,VWS V14.01,2013-08-15 23:08:00,
2013-08-15 19:13:00,74.5,61.1,29.90,North,-999,-999.0,0.0,63,0.00,,---,0.00,VWS V14.01,2013-08-15 23:13:00,
2013-08-15 19:18:00,74.2,61.2,29.90,North,-999,-999.0,0.0,64,0.00,,---,0.00,VWS V14.01,2013-08-15 23:18:00,
2013-08-15 19:23:00,74.0,61.5,29.90,North,-999,-999.0,0.0,65,0.00,,---,0.00,VWS V14.01,2013-08-15 23:23:00,
2013-08-15 19:28:00,73.8,61.3,29.90,North,-999,-999.0,0.0,65,0.00,,---,0.00,VWS V14.01,2013-08-15 23:28:00,
2013-08-15 19:33:00,73.3,61.3,29.90,North,-999,-999.0,0.0,66,0.00,,---,0.00,VWS V14.01,2013-08-15 23:33:00,
2013-08-15 19:39:00,72.9,61.3,29.90,North,-999,-999.0,0.0,67,0.00,,---,0.00,VWS V14.01,2013-08-15 23:39:00,
2013-08-15 19:44:00,72.5,60.9,29.90,North,-999,-999.0,0.0,67,0.00,,---,0.00,VWS V14.01,2013-08-15 23:44:00,
2013-08-15 19:49:00,72.2,61.1,29.90,North,-999,-999.0,0.0,68,0.00,,---,0.00,VWS V14.01,2013-08-15 23:49:00,
2013-08-15 19:54:00,71.8,60.7,29.91,North,-999,-999.0,0.0,68,0.00,,---,0.00,VWS V14.01,2013-08-15 23:54:00,
2013-08-15 19:59:00,71.6,60.5,29.90,North,-999,-999.0,0.0,68,0.00,,---,0.00,VWS V14.01,2013-08-15 23:59:00,
2013-08-15 20:06:00,71.1,60.4,29.90,North,-999,-999.0,0.0,69,0.00,,---,0.00,VWS V14.01,2013-08-16 00:06:00,
2013-08-15 20:12:00,70.6,60.3,29.91,North,-999,-999.0,0.0,70,0.00,,---,0.00,VWS V14.01,2013-08-16 00:12:00,
2013-08-15 20:17:00,70.2,60.0,29.91,North,-999,-999.0,0.0,70,0.00,,---,0.00,VWS V14.01,2013-08-16 00:17:00,
2013-08-15 20:22:00,70.0,60.2,29.91,North,-999,-999.0,0.0,71,0.00,,---,0.00,VWS V14.01,2013-08-16 00:22:00,
2013-08-15 20:27:00,69.8,60.0,29.91,North,-999,-999.0,0.0,71,0.00,,---,0.00,VWS V14.01,2013-08-16 00:27:00,
2013-08-15 20:32:00,69.7,60.3,29.91,North,-999,-999.0,0.0,72,0.00,,---,0.00,VWS V14.01,2013-08-16 00:32:00,
2013-08-15 20:38:00,69.5,60.5,29.91,North,-999,-999.0,0.0,73,0.00,,---,0.00,VWS V14.01,2013-08-16 00:38:00,
2013-08-15 20:43:00,69.1,60.1,29.92,North,-999,-999.0,0.0,73,0.00,,---,0.00,VWS V14.01,2013-08-16 00:43:00,
2013-08-15 20:48:00,68.9,60.3,29.91,North,-999,-999.0,0.0,74,0.00,,---,0.00,VWS V14.01,2013-08-16 00:48:00,
2013-08-15 20:53:00,68.8,60.2,29.92,North,-999,-999.0,0.0,74,0.00,,---,0.00,VWS V14.01,2013-08-16 00:53:00,
2013-08-15 20:58:00,68.6,60.4,29.92,North,-999,-999.0,0.0,75,0.00,,---,0.00,VWS V14.01,2013-08-16 00:58:00,
2013-08-15 21:03:00,68.4,60.2,29.91,North,-999,-999.0,0.0,75,0.00,,---,0.00,VWS V14.01,2013-08-16 01:03:00,
2013-08-15 21:09:00,68.2,60.3,29.92,North,-999,-999.0,0.0,76,0.00,,---,0.00,VWS V14.01,2013-08-16 01:09:00,
2013-08-15 21:14:00,68.0,60.2,29.92,North,-999,-999.0,0.0,76,0.00,,---,0.00,VWS V14.01,2013-08-16 01:14:00,
2013-08-15 21:21:00,68.0,60.5,29.92,North,-999,-999.0,0.0,77,0.00,,---,0.00,VWS V14.01,2013-08-16 01:21:00,
2013-08-15 21:26:00,68.0,60.5,29.92,North,-999,-999.0,0.0,77,0.00,,---,0.00,VWS V14.01,2013-08-16 01:26:00,
2013-08-15 21:32:00,68.0,60.5,29.92,North,-999,-999.0,0.0,77,0.00,,---,0.00,VWS V14.01,2013-08-16 01:32:00,
2013-08-15 21:37:00,68.0,60.5,29.92,North,-999,-999.0,0.0,77,0.00,,---,0.00,VWS V14.01,2013-08-16 01:37:00,
2013-08-15 21:43:00,68.0,60.5,29.93,North,-999,-999.0,0.0,77,0.00,,---,0.00,VWS V14.01,2013-08-16 01:43:00,
2013-08-15 21:48:00,68.0,60.9,29.93,North,-999,-999.0,0.0,78,0.00,,---,0.00,VWS V14.01,2013-08-16 01:48:00,
2013-08-15 21:53:00,68.0,60.9,29.93,North,-999,-999.0,0.0,78,0.00,,---,0.00,VWS V14.01,2013-08-16 01:53:00,
2013-08-15 21:58:00,67.9,61.2,29.93,North,-999,-999.0,0.0,79,0.00,,---,0.00,VWS V14.01,2013-08-16 01:58:00,
2013-08-15 22:04:00,67.7,61.0,29.94,North,-999,-999.0,0.0,79,0.00,,---,0.00,VWS V14.01,2013-08-16 02:04:00,
2013-08-15 22:09:00,67.7,61.0,29.93,North,-999,-999.0,0.0,79,0.00,,---,0.00,VWS V14.01,2013-08-16 02:09:00,
2013-08-15 22:14:00,67.7,61.0,29.94,North,-999,-999.0,0.0,79,0.00,,---,0.00,VWS V14.01,2013-08-16 02:14:00,
2013-08-15 22:19:00,67.7,61.3,29.94,North,-999,-999.0,0.0,80,0.00,,---,0.00,VWS V14.01,2013-08-16 02:19:00,
2013-08-15 22:24:00,67.5,61.1,29.94,North,-999,-999.0,0.0,80,0.00,,---,0.00,VWS V14.01,2013-08-16 02:24:00,
2013-08-15 22:29:00,67.5,61.1,29.94,North,-999,-999.0,0.0,80,0.00,,---,0.00,VWS V14.01,2013-08-16 02:29:00,
2013-08-15 22:34:00,67.5,61.1,29.94,North,-999,-999.0,0.0,80,0.00,,---,0.00,VWS V14.01,2013-08-16 02:34:00,
2013-08-15 22:39:00,67.5,61.1,29.93,North,-999,-999.0,0.0,80,0.00,,---,0.00,VWS V14.01,2013-08-16 02:39:00,
2013-08-15 22:45:00,67.5,61.1,29.93,North,-999,-999.0,0.0,80,0.00,,---,0.00,VWS V14.01,2013-08-16 02:45:00,
2013-08-15 22:50:00,67.5,61.1,29.93,North,-999,-999.0,0.0,80,0.00,,---,0.00,VWS V14.01,2013-08-16 02:50:00,
2013-08-15 22:55:00,67.5,61.1,29.93,North,-999,-999.0,0.0,80,0.00,,---,0.00,VWS V14.01,2013-08-16 02:55:00,
2013-08-15 23:01:00,67.3,61.3,29.93,North,-999,-999.0,0.0,81,0.00,,---,0.00,VWS V14.01,2013-08-16 03:01:00,
2013-08-15 23:06:00,67.3,61.3,29.93,North,-999,-999.0,0.0,81,0.00,,---,0.00,VWS V14.01,2013-08-16 03:06:00,
2013-08-15 23:11:00,67.3,61.3,29.92,North,-999,-999.0,0.0,81,0.00,,---,0.00,VWS V14.01,2013-08-16 03:11:00,
2013-08-15 23:16:00,67.3,61.3,29.92,North,-999,-999.0,0.0,81,0.00,,---,0.00,VWS V14.01,2013-08-16 03:16:00,
2013-08-15 23:21:00,67.3,60.9,29.93,North,-999,-999.0,0.0,80,0.00,,---,0.00,VWS V14.01,2013-08-16 03:21:00,
2013-08-15 23:26:00,67.3,60.9,29.93,North,-999,-999.0,0.0,80,0.00,,---,0.00,VWS V14.01,2013-08-16 03:26:00,
2013-08-15 23:31:00,67.3,60.9,29.92,North,-999,-999.0,0.0,80,0.00,,---,0.00,VWS V14.01,2013-08-16 03:31:00,
2013-08-15 23:36:00,67.1,61.1,29.92,North,-999,-999.0,0.0,81,0.00,,---,0.00,VWS V14.01,2013-08-16 03:36:00,
2013-08-15 23:41:00,67.1,61.1,29.92,North,-999,-999.0,0.0,81,0.00,,---,0.00,VWS V14.01,2013-08-16 03:41:00,
2013-08-15 23:46:00,67.1,61.1,29.93,North,-999,-999.0,0.0,81,0.00,,---,0.00,VWS V14.01,2013-08-16 03:46:00,
2013-08-15 23:51:00,67.1,61.1,29.93,North,-999,-999.0,0.0,81,0.00,,---,0.00,VWS V14.01,2013-08-16 03:51:00,
2013-08-15 23:57:00,67.1,61.1,29.93,North,-999,-999.0,0.0,81,0.00,,---,0.00,VWS V14.01,2013-08-16 03:57:00,